Weather History for Danville, VA

Change the Weather History Date:

Wednesday, June 19, 2013

  Actual Average Record
Temperature  
Mean Temperature 71 °F 76 °F  
Max Temperature 80 °F 86 °F 99 °F (1970)
Min Temperature 62 °F 66 °F 48 °F (1961)
Degree Days  
Heating Degree Days 0 0  
Month to date heating degree days 0 0  
Since 1 June heating degree days 0 0  
Since 1 July heating degree days 3778 3811  
Cooling Degree Days 6 11  
Month to date cooling degree days 178 164  
Year to date cooling degree days 340 308  
Since 1 June cooling degree days 178 164  
Growing Degree Days 21 (Base 50)    
Moisture  
Dew Point 64 °F    
Average Humidity 76    
Maximum Humidity 93    
Minimum Humidity 58    
Precipitation  
Precipitation 0.00 in 0.11 in 0.80 in (1987)
Month to date precipitation 4.44 2.55  
Year to date precipitation 24.65 20.43  
Snow  
Snow 0.00 in - - ()
Month to date snowfall 0.0  
Since 1 June snowfall 0.0  
Since 1 July snowfall 1.7  
Snow Depth 0.00 in    
Sea Level Pressure  
Sea Level Pressure 29.98 in    
Wind  
Wind Speed 4 mph (NE)    
Max Wind Speed 9 mph    
Max Gust Speed -    
Visibility 8 miles    
Events      
T = Trace of Precipitation, MM = Missing Value Source: NWS Daily Summary

Daily Weather History Graph

Daily Weather History Graph

Search for Another Location

Airport:

Trip Planner

Search our weather history database for the weather conditions in past years. The results will help you decide how hot, cold, wet, or windy it might be!

Date:

Astronomy

Jun. 19, 2013 Rise Set
Actual Time 5:58 AM EDT 8:38 PM EDT
Civil Twilight 5:28 AM EDT 9:09 PM EDT
Nautical Twilight 4:50 AM EDT 9:47 PM EDT
Astronomical Twilight 4:07 AM EDT 10:30 PM EDT
Moon 4:33 PM EDT (6/19) 2:37 AM EDT (6/19)
Length of Visible Light 15h 40m
Length of Day
14h 39m
Waxing Gibbous, 80% of the Moon is Illuminated
Jun 19
Waxing Gibbous
Jun 23
Full
Jun 30
Last Quarter
Jul 8
New
Jul 15
First Quarter

Hourly Weather History & Observations

Time (EDT) Temp. Heat Index Dew Point Humidity Pressure Visibility Wind Dir Wind Speed Gust Speed Precip Events Conditions
12:53 AM 69.1 °F - 64.9 °F 87% 29.89 in 10.0 mi North 3.5 mph - N/A   Clear
1:53 AM 68.0 °F - 64.0 °F 87% 29.90 in 10.0 mi NNW 3.5 mph - N/A   Clear
2:53 AM 66.0 °F - 63.0 °F 90% 29.88 in 9.0 mi Calm Calm - N/A   Clear
3:53 AM 64.9 °F - 62.1 °F 90% 29.90 in 10.0 mi NW 3.5 mph - N/A   Clear
4:53 AM 63.0 °F - 61.0 °F 93% 29.90 in 9.0 mi Calm Calm - N/A   Clear
5:53 AM 62.1 °F - 60.1 °F 93% 29.93 in 1.8 mi Calm Calm - 0.01 in   Clear
6:04 AM 62.6 °F - 60.8 °F 94% 29.96 in 2.0 mi Calm Calm - N/A   Clear
6:15 AM 62.6 °F - 60.8 °F 94% 29.96 in 4.0 mi Calm Calm - N/A   Clear
6:53 AM 64.9 °F - 63.0 °F 93% 29.94 in 7.0 mi Calm Calm - N/A   Clear
7:53 AM 66.9 °F - 64.0 °F 90% 29.97 in 8.0 mi Calm Calm - N/A   Clear
8:53 AM 72.0 °F - 64.9 °F 78% 29.99 in 10.0 mi NNW 4.6 mph - N/A   Clear
9:53 AM 75.0 °F - 66.0 °F 73% 30.00 in 10.0 mi East 4.6 mph - N/A   Clear
10:53 AM 77.0 °F - 64.9 °F 66% 30.01 in 10.0 mi NE 3.5 mph - N/A   Partly Cloudy
11:53 AM 78.1 °F - 64.9 °F 64% 30.02 in 10.0 mi Variable 4.6 mph - N/A   Partly Cloudy
12:28 PM 78.8 °F - 64.4 °F 61% 30.05 in 10.0 mi NE 4.6 mph - N/A   Mostly Cloudy
12:45 PM 80.6 °F 82.7 °F 66.2 °F 61% 30.06 in 10.0 mi NE 9.2 mph - N/A   Partly Cloudy
12:53 PM 80.1 °F 81.9 °F 64.9 °F 60% 30.03 in 10.0 mi East 5.8 mph - N/A   Partly Cloudy
1:53 PM 78.1 °F - 64.9 °F 64% 30.04 in 10.0 mi ENE 6.9 mph - N/A   Mostly Cloudy
2:53 PM 79.0 °F - 64.9 °F 62% 30.03 in - ENE 9.2 mph - N/A   Partly Cloudy
3:53 PM 79.0 °F - 66.0 °F 64% 30.03 in - ENE 8.1 mph - N/A   Partly Cloudy
4:53 PM 77.0 °F - 64.9 °F 66% 30.03 in - East 6.9 mph - N/A   Scattered Clouds